GW6794 Weather Reports


Display with metric or nautical units.
time (UTC)temp
F
wind
direction
speed
MPH
gust
MPH
rain 1hr
in
rain 24hr
in
rain mn
in
humidity
%
barometer
mb
20260504035510 63 206 11.0 18.0 0.00 0.00 0.00 35 995.9
20260504035008 63 230 11.0 17.0 0.00 0.00 0.00 35 996.0
20260504034525 63 261 11.0 17.0 0.00 0.00 0.00 35 996.2
20260504034004 63 253 9.0 16.0 0.00 0.00 0.00 35 996.3
20260504033504 64 229 12.0 16.0 0.00 0.00 0.00 35 996.4
20260504033010 63 244 9.0 15.0 0.00 0.00 0.00 35 996.6
20260504032503 64 210 9.0 15.0 0.00 0.00 0.00 35 996.6
20260504032005 64 225 9.0 15.0 0.00 0.00 0.00 35 996.8
20260504031518 64 227 9.0 16.0 0.00 0.00 0.00 35 996.9
20260504031010 64 220 9.0 16.0 0.00 0.00 0.00 34 997.0
20260504030508 64 218 10.0 17.0 0.00 0.00 0.00 34 997.1
20260504030020 64 231 9.0 17.0 0.00 0.00 0.00 33 997.2
20260504025507 65 233 10.0 17.0 0.00 0.00 0.00 33 997.3
20260504025011 65 239 11.0 17.0 0.00 0.00 0.00 33 997.3
20260504024526 65 242 10.0 21.0 0.00 0.00 0.00 32 997.3
20260504024009 65 213 11.0 21.0 0.00 0.00 0.00 32 997.4
20260504023505 66 215 11.0 16.0 0.00 0.00 0.00 32 997.5
20260504023010 66 225 10.0 17.0 0.00 0.00 0.00 32 997.6
20260504022504 66 222 10.0 17.0 0.00 0.00 0.00 31 997.6
20260504022006 66 231 9.0 17.0 0.00 0.00 0.00 31 997.6
20260504021513 66 235 10.0 15.0 0.00 0.00 0.00 31 997.7
20260504021008 66 185 9.0 15.0 0.00 0.00 0.00 31 997.8
20260504020507 66 234 10.0 15.0 0.00 0.00 0.00 997.9
20260504020018 65 226 6.0 12.0 0.00 0.00 0.00 998.1
20260504015508 66 206 7.0 11.0 0.00 0.00 0.00 998.3
20260504015012 66 216 6.0 10.0 0.00 0.00 0.00 29 998.4
20260504014525 67 202 5.0 11.0 0.00 0.00 0.00 29 998.5
20260504014009 68 211 6.0 12.0 0.00 0.00 0.00 29 998.5
20260504013509 68 234 6.0 12.0 0.00 0.00 0.00 28 998.6
20260504013025 68 235 6.0 11.0 0.00 0.00 0.00 28 998.7
20260504012507 69 216 7.0 11.0 0.00 0.00 0.00 28 998.8
20260504012004 69 225 7.0 11.0 0.00 0.00 0.00 28 998.9
20260504011513 69 242 8.0 11.0 0.00 0.00 0.00 27 998.9
20260504011007 70 234 8.0 11.0 0.00 0.00 0.00 27 999.0
20260504010508 70 246 6.0 11.0 0.00 0.00 0.00 27 999.1
20260504010016 70 224 6.0 11.0 0.00 0.00 0.00 27 999.3
20260504005507 70 241 7.0 11.0 0.00 0.00 0.00 26 999.5
20260504005008 70 238 6.0 11.0 0.00 0.00 0.00 26 999.7
20260504004533 71 229 8.0 10.0 0.00 0.00 0.00 26 999.8
20260504004009 71 273 6.0 12.0 0.00 0.00 0.00 26 1000.0
20260504003510 71 288 7.0 16.0 0.00 0.00 0.00 26 1000.1
20260504003025 71 262 8.0 21.0 0.00 0.00 0.00 25 1000.2
20260504002509 71 270 13.0 21.0 0.00 0.00 0.00 25 1000.3
20260504002005 71 276 13.0 21.0 0.00 0.00 0.00 24 1000.4
20260504001509 72 278 12.0 21.0 0.00 0.00 0.00 24 1000.5
20260504001007 71 315 11.0 20.0 0.00 0.00 0.00 25 1000.5
20260504000504 72 239 8.0 18.0 0.00 0.00 0.00 25 1000.6
20260504000015 72 294 11.0 18.0 0.00 0.00 0.00 25 1000.7
20260503235506 72 265 10.0 19.0 0.00 0.00 0.00 25 1000.8
20260503235007 72 309 10.0 19.0 0.00 0.00 0.00 25 1000.9
20260503234523 72 274 13.0 19.0 0.00 0.00 0.00 25 1001.0
20260503234006 71 269 11.0 18.0 0.00 0.00 0.00 25 1001.1
20260503233505 72 252 11.0 18.0 0.00 0.00 0.00 25 1001.2
20260503233023 72 333 9.0 20.0 0.00 0.00 0.00 25 1001.3
20260503232510 72 253 13.0 20.0 0.00 0.00 0.00 25 1001.3
20260503232008 72 259 12.0 19.0 0.00 0.00 0.00 25 1001.5
20260503231526 72 250 10.0 25.0 0.00 0.00 0.00 26 1001.7
20260503231007 72 269 16.0 25.0 0.00 0.00 0.00 25 1001.8
20260503230504 73 273 12.0 19.0 0.00 0.00 0.00 25 1001.9
20260503230012 73 279 9.0 25.0 0.00 0.00 0.00 25 1001.9
20260503225505 73 265 14.0 25.0 0.00 0.00 0.00 24 1002.1
20260503225009 73 324 10.0 25.0 0.00 0.00 0.00 24 1002.1
20260503224521 74 271 13.0 25.0 0.00 0.00 0.00 24 1002.2
20260503224008 74 270 12.0 18.0 0.00 0.00 0.00 24 1002.3
20260503223508 74 313 9.0 21.0 0.00 0.00 0.00 24 1002.2
20260503223026 74 300 10.0 21.0 0.00 0.00 0.00 25 1002.3
20260503222506 73 265 9.0 20.0 0.00 0.00 0.00 24 1002.3
20260503222012 73 304 14.0 19.0 0.00 0.00 0.00 25 1002.5
20260503221527 73 294 13.0 19.0 0.00 0.00 0.00 24 1002.6
20260503221012 73 227 9.0 19.0 0.00 0.00 0.00 25 1002.7
20260503220514 74 316 7.0 20.0 0.00 0.00 0.00 26 1002.8
20260503220013 73 252 14.0 20.0 0.00 0.00 0.00 25 1002.9
20260503215507 73 269 10.0 17.0 0.00 0.00 0.00 26 1003.1
20260503215006 73 292 9.0 19.0 0.00 0.00 0.00 25 1003.2
20260503214518 73 347 10.0 19.0 0.00 0.00 0.00 26 1003.4
20260503214005 73 271 10.0 19.0 0.00 0.00 0.00 25 1003.4
20260503213511 73 275 6.0 19.0 0.00 0.00 0.00 27 1003.5
20260503213021 72 277 12.0 20.0 0.00 0.00 0.00 25 1003.6
20260503212508 73 274 11.0 20.0 0.00 0.00 0.00 27 1003.7
20260503212012 73 311 7.0 20.0 0.00 0.00 0.00 26 1003.8
20260503211527 72 269 11.0 16.0 0.00 0.00 0.00 27 1003.8
20260503211016 72 281 8.0 17.0 0.00 0.00 0.00 26 1004.1
20260503210513 72 260 10.0 17.0 0.00 0.00 0.00 28 1004.3
20260503210026 72 317 8.0 15.0 0.00 0.00 0.00 28 1004.3
20260503205514 72 298 5.0 17.0 0.00 0.00 0.00 29 1004.3
20260503205004 72 267 11.0 18.0 0.00 0.00 0.00 27 1004.5
20260503204526 71 287 11.0 18.0 0.00 0.00 0.00 27 1004.4
20260503204016 72 283 7.0 14.0 0.00 0.00 0.00 27 1004.6
20260503203507 71 233 6.0 13.0 0.00 0.00 0.00 28 1004.6
20260503203020 71 338 6.0 13.0 0.00 0.00 0.00 29 1004.8
20260503202510 71 269 10.0 18.0 0.00 0.00 0.00 28 1004.9
20260503202010 71 263 7.0 18.0 0.00 0.00 0.00 27 1005.0
20260503201526 71 304 10.0 17.0 0.00 0.00 0.00 27 1005.2
20260503201006 71 271 8.0 19.0 0.00 0.00 0.00 29 1005.2
20260503200507 71 262 6.0 19.0 0.00 0.00 0.00 31 1005.5
20260503200027 71 319 7.0 17.0 0.00 0.00 0.00 29 1005.6
20260503195512 71 262 8.0 16.0 0.00 0.00 0.00 30 1005.8
20260503195010 70 279 8.0 19.0 0.00 0.00 0.00 30 1006.0
20260503194531 70 264 11.0 19.0 0.00 0.00 0.00 29 1006.1
20260503194004 70 259 7.0 16.0 0.00 0.00 0.00 30 1006.2
20260503193510 70 248 7.0 16.0 0.00 0.00 0.00 29 1006.4
20260503193036 70 269 7.0 14.0 0.00 0.00 0.00 31 1006.4
20260503192507 69 277 7.0 14.0 0.00 0.00 0.00 30 1006.4
20260503192008 70 341 4.0 12.0 0.00 0.00 0.00 29 1006.5
20260503191522 69 313 5.0 14.0 0.00 0.00 0.00 30 1006.6
20260503191014 70 298 7.0 14.0 0.00 0.00 0.00 29 1006.7
20260503190507 69 351 3.0 16.0 0.00 0.00 0.00 34 1006.9
20260503190027 69 254 8.0 15.0 0.00 0.00 0.00 28 1007.0
20260503185509 69 310 7.0 15.0 0.00 0.00 0.00 31 1007.1
20260503185008 68 337 5.0 15.0 0.00 0.00 0.00 28 1007.2
20260503184529 68 277 9.0 14.0 0.00 0.00 0.00 30 1007.4
20260503184010 68 319 4.0 14.0 0.00 0.00 0.00 29 1007.4
20260503183507 68 350 7.0 14.0 0.00 0.00 0.00 30 1007.6
20260503183018 68 334 3.0 10.0 0.00 0.00 0.00 30 1007.8
20260503182509 68 314 3.0 12.0 0.00 0.00 0.00 31 1007.9
20260503182009 67 350 4.0 14.0 0.00 0.00 0.00 28 1008.1
20260503181505 67 286 5.0 14.0 0.00 0.00 0.00 32 1008.1
20260503181003 66 257 7.0 18.0 0.00 0.00 0.00 30 1008.3
20260503180503 66 292 7.0 18.0 0.00 0.00 0.00 30 1008.4
20260503180016 66 360 4.0 16.0 0.00 0.00 0.00 30 1008.4
20260503175504 66 267 8.0 15.0 0.00 0.00 0.00 31 1008.5
20260503175003 66 328 3.0 11.0 0.00 0.00 0.00 35 1008.7
20260503174510 64 289 0.0 13.0 0.00 0.00 0.00 34 1008.7
20260503174006 64 334 7.0 14.0 0.00 0.00 0.00 31 1009.0
20260503173506 65 265 10.0 14.0 0.00 0.00 0.00 33 1009.1
20260503173023 65 301 5.0 12.0 0.00 0.00 0.00 35 1009.2
20260503172510 65 13 6.0 12.0 0.00 0.00 0.00 36 1009.2
20260503172010 64 322 5.0 13.0 0.00 0.00 0.00 36 1009.1
20260503171523 64 259 3.0 13.0 0.00 0.00 0.00 35 1009.3
20260503171005 64 281 4.0 9.0 0.00 0.00 0.00 35 1009.3
20260503170504 64 262 3.0 13.0 0.00 0.00 0.00 36 1009.4
20260503151008 55 294 2.0 6.0 0.00 0.00 0.00 47 1010.8
20260503150508 56 338 2.0 5.0 0.00 0.00 0.00 45 1010.7
20260503131012 46 334 1.0 4.0 0.00 0.00 0.00 57 1010.9
20260503130507 45 339 0.0 4.0 0.00 0.00 0.00 56 1010.9
20260503110503 42 335 0.0 3.0 0.00 0.00 0.00 60 1009.7
20260503090508 45 343 1.0 4.0 0.00 0.00 0.00 66 1009.1
20260503081524 48 19 0.0 2.0 0.00 0.00 0.00 63 1008.7
20260503081011 48 352 0.0 5.0 0.00 0.00 0.00 63 1008.6
20260503080510 48 329 0.0 5.0 0.00 0.00 0.00 63 1008.6
20260503072507 50 360 2.0 8.0 0.00 0.00 0.00 60 1008.5
20260503072008 51 352 1.0 8.0 0.00 0.00 0.00 59 1008.5
20260503071527 51 333 1.0 6.0 0.00 0.00 0.00 59 1008.5
20260503071014 51 5 1.0 8.0 0.00 0.00 0.00 59 1008.4
20260503070507 51 312 1.0 9.0 0.00 0.00 0.00 59 1008.4
20260503055011 52 346 1.0 5.0 0.00 0.00 0.00 57 1007.9
20260503054536 52 338 1.0 6.0 0.00 0.00 0.00 57 1007.7
20260503054012 52 360 1.0 8.0 0.00 0.00 0.00 58 1007.6
20260503053512 52 306 1.0 8.0 0.00 0.00 0.00 58 1007.6
20260503053026 52 19 0.0 6.0 0.00 0.00 0.00 58 1007.5
20260503052504 52 321 0.0 6.0 0.00 0.00 0.00 58 1007.5
20260503052008 52 10 1.0 4.0 0.00 0.00 0.00 57 1007.3
20260503051526 53 31 0.0 9.0 0.00 0.00 0.00 57 1007.3
20260503051012 53 5 1.0 9.0 0.00 0.00 0.00 57 1007.2
20260503050512 53 352 1.0 9.0 0.00 0.00 0.00 57 1007.2
20260503050025 53 78 1.0 6.0 0.00 0.00 0.00 57 1007.1
20260503045511 53 337 0.0 6.0 0.00 0.00 0.00 56 1007.1
20260503045012 53 348 1.0 6.0 0.00 0.00 0.00 56 1007.0
20260503044532 53 50 1.0 8.0 0.00 0.00 0.00 56 1006.9
20260503044013 54 32 2.0 11.0 0.00 0.00 0.00 56 1006.8
20260503043503 54 35 0.0 11.0 0.00 0.00 0.00 55 1006.7
20260503043012 54 25 1.0 8.0 0.00 0.00 0.00 55 1006.7
20260503042507 54 329 2.0 8.0 0.00 0.00 0.00 55 1006.7
20260503042008 54 360 1.0 6.0 0.00 0.00 0.00 55 1006.7
20260503041518 54 360 1.0 5.0 0.00 0.00 0.00 54 1006.6
20260503041004 55 25 1.0 7.0 0.00 0.00 0.00 54 1006.5
20260503040509 55 360 2.0 7.0 0.00 0.00 0.00 53 1006.5
20260503040026 55 31 2.0 6.0 0.00 0.00 0.00 53 1006.4